Regional Weather Roundup
Issued by NWS

Home | Current Version | Previous Version | Graphics & Text | Print | Product List | Glossary On
Versions: 1 2 3 4 5 6 7 8 9 10 11 12 13 14 15 16 17 18 19 20 21 22 23 24 25 26 27 28 29 30 31 32 33 34 35 36 37 38 39 40 41 42 43 44 45 46 47 48 49 50
000
ASUS43 KMPX 031710
RWRMN
WEATHER ROUNDUP FOR MINNESOTA
NATIONAL WEATHER SERVICE TWIN CITIES/CHANHASSEN MN
1200 PM CDT TUE MAY 03 2016


NOTE: "FAIR" INDICATES FEW OR NO CLOUDS BELOW 12,000 FEET WITH NO
SIGNIFICANT WEATHER AND/OR OBSTRUCTIONS TO VISIBILITY. N/A MEANS
CURRENT SKY AND/OR WEATHER CONDITIONS ARE NOT AVAILABLE.

MNZ060>063-068>070-031800-
   Twin Cities Metro

CITY           SKY/WX    TMP DP  RH WIND       PRES   REMARKS
TWIN CITIES    PTSUNNY   67  41  38 W20       29.86F
ST PAUL        SUNNY     66  42  41 W18G24    29.86F
CRYSTAL        MOSUNNY   69  39  33 W18G28    29.84F
BLAINE         PTSUNNY   68  39  34 MISG        N/A
EDEN PRAIRIE   MOSUNNY   68  39  34 W15G23    29.86F
SOUTH ST PAUL  MOSUNNY   66  37  34 W14G21    29.86F
LAKE ELMO      FAIR      66  41  39 W13G24    29.86F
$$
MNZ001>005-007-008-013>017-022>024-027-028-031800-
   Northwest Minnesota

CITY           SKY/WX    TMP DP  RH WIND       PRES   REMARKS
BEMIDJI        SUNNY     64  36  34 NW16G25   29.78S
HALLOCK        SUNNY     63  27  25 N26G33    29.88R
ROSEAU         SUNNY     63  27  25 N22G30    29.84R
WARROAD        SUNNY     61  30  31 NW17G24   29.83R
THIEF RVR FALL SUNNY     63  30  29 N21G26    29.86R
CROOKSTON      SUNNY     64  28  25 N30G37    29.86R
FOSSTON        SUNNY     64  30  27 NW21      29.83R
DETROIT LAKES  MOSUNNY   66  39  37 NW16G24   29.83S
MOORHEAD       SUNNY     72  36  26 N23G30    29.84S
PARK RAPIDS    PTSUNNY   68  40  35 W21G28    29.78F
MAHNOMEN       FAIR      66  34  30 N22G29    29.81F
$$
MNZ006-009>011-018-025>026-031800-
   North Central Minnesota

CITY           SKY/WX    TMP DP  RH WIND       PRES   REMARKS
BAUDETTE       SUNNY     59  27  29 N24G31    29.80R
FLAG ISLAND    SUNNY     54  30  40 NW26      29.81R
INTL FALLS     MOSUNNY   62  33  33 NW18      29.73R
WASKISH        SUNNY     63  34  34 NW12G21   29.78R
BIG FORK       MOSUNNY   64  34  32 NW9       29.73F
LONGVILLE      CLOUDY    64  36  34 W15G21    29.75F
GRAND RAPIDS   CLOUDY    61  36  39 W13G26    29.75S
CRANE LAKE     MOSUNNY   59  36  41 N12G22    29.72R
ORR            MOSUNNY   64  30  27 NW13      29.68F
COOK           MOSUNNY   61  37  41 W12G17    29.71F
WALKER         CLOUDY    63  38  39 NW14G25   29.77S
$$
MNZ012-019>021-037-031800-
   Northeast Minnesota

CITY           SKY/WX    TMP DP  RH WIND       PRES   REMARKS
DULUTH         CLOUDY    63  34  33 W21G31    29.70F
ELY            MOSUNNY   55  41  58 W13G20    29.69F
HIBBING        PTSUNNY   62  37  39 NW21G28   29.71F
EVELETH        CLOUDY    59  36  41 W14G20    29.72R
DULUTH HARBOR  CLOUDY    63  37  39 W22G30    29.69F
TWO HARBORS    CLOUDY    66  43  42 W15G30    29.66F
SILVER BAY     LGT RAIN  61  41  48 NW12      29.68R
GRAND MARAIS     N/A     46  40  79 SW8       29.64F
G MARAIS ARPRT   N/A     55  39  54 W12G21    29.65F
$$
MNZ029>031-032-039>041-046>048-054>057-064-031800-
   West Central Minnesota

CITY           SKY/WX    TMP DP  RH WIND       PRES   REMARKS
FERGUS FALLS   MOSUNNY   66  43  42 W18       29.82F
WHEATON        MOSUNNY   68  45  42 W10       29.89F
MORRIS         PTSUNNY   66  43  42 W15G21    29.87F
ALEXANDRIA     MOSUNNY   63  42  46 W18G26    29.86F
ELBOW LAKE     FAIR      65  42  44 W17G24    29.86F
WADENA         MOSUNNY   64  43  45 W21G26    29.80F
GLENWOOD       MOSUNNY   64  43  45 W18G26    29.87F
APPLETON       MOSUNNY   66  43  42 NW16G25   29.88F
BENSON         MOSUNNY   66  41  39 NW14G24   29.88F
ORTONVILLE     MOSUNNY   64  43  45 W10       29.89F
MADISON        MOSUNNY   66  45  45 NW15G26   29.90F
WILLMAR        FAIR      66  41  39 W20G31    29.89F
$$
MNZ033>034-036-042>043-049>051-058-059-031800-
   Central Minnesota

CITY           SKY/WX    TMP DP  RH WIND       PRES   REMARKS
ST CLOUD       SUNNY     67  39  35 W22G29    29.84F
SAUK CENTRE    FAIR      63  43  48 W17G26    29.86F
PAYNESVILLE    MOSUNNY   67  37  33 W23G29    29.88F
AITKIN         CLOUDY    66  30  26 SW15G22   29.74F
PINE RIVER     CLOUDY    63  43  48 W12G18    29.80F
BRAINERD       CLOUDY    63  38  39 W17G24    29.79F
STAPLES        MOSUNNY   64  39  39 W16G25    29.80F
LONG PRAIRIE   FAIR      61  41  48 W17G24    29.84F
LITTLE FALLS   MOSUNNY   63  37  39 W16G26    29.82F
LITCHFIELD     MOSUNNY   66  39  37 W14G23    29.88F
BUFFALO        SUNNY     66  37  34 W14G24    29.87F
MAPLE LAKE     SUNNY     67  40  38 SW14G23   29.87F
HUTCHINSON     SUNNY     68  41  37 SW17G29   29.89F
$$
MNZ037-044-045-052-053-031800-
   East Central Minnesota

CITY           SKY/WX    TMP DP  RH WIND       PRES   REMARKS
PRINCETON      MOSUNNY   70  37  30 W18G28    29.83F
MORA           SUNNY     64  36  34 W18G26    29.81F
CAMBRIDGE      MOSUNNY   70  46  43 W18G24    29.80F
RUSH CITY      MOSUNNY   68  39  34 W17G26    29.81F
MOOSE LAKE     CLOUDY    64  36  34 W13G23    29.73F
HINCKLEY       PTSUNNY   64  37  36 W17G26    29.78F
CLOQUET        CLOUDY    63  30  29 W15G25    29.72F
MCGREGOR       CLOUDY    63  37  39 W12G23    29.75F
$$
MNZ071>073-080-081-089-090-097-098-031800-
   Southwest Minnesota

CITY           SKY/WX    TMP DP  RH WIND       PRES   REMARKS
MONTEVIDEO     SUNNY     70  41  35 NW14G23   29.91F
GRANITE FALLS  SUNNY     69  41  36 W20G26    29.92F
CANBY          PTSUNNY   67  48  51 NW21G28   29.92F
MARSHALL       SUNNY     65  42  43 W17G26    29.92F
REDWOOD FALLS  SUNNY     66  39  37 W18G24    29.91F
OLIVIA         SUNNY     64  41  42 W18       29.89F
PIPESTONE      MOSUNNY   63  45  51 NW20      29.96F
WINDOM         MOSUNNY   64  39  39 SW18      29.94F
WORTHINGTON    SUNNY     61  45  55 W20G26    29.97F
JACKSON        SUNNY     63  36  36 W15       29.96F
TRACY          SUNNY     65  43  44 W9G18     29.94F
SLAYTON        SUNNY     62  44  51 W18G25    29.96F
$$
MNZ065>067-074>077-082>085-091>093-031800-
   South Central Minnesota

CITY           SKY/WX    TMP DP  RH WIND       PRES   REMARKS
MANKATO        SUNNY     64  37  36 W16G25    29.91F
NEW ULM        MOSUNNY   64  39  39 W18       29.91F
ST JAMES       MOSUNNY   61  37  41 W13       29.94F
FAIRMONT       SUNNY     63  39  42 W13       29.94F
GLENCOE        MOSUNNY   67  44  43 W12G26    29.88F
FARIBAULT      MOSUNNY   66  39  37 W13G18    29.90F
OWATONNA       MOSUNNY   66  34  30 W20G25    29.90F
WASECA         MOSUNNY   64  37  36 W21       29.93F
ALBERT LEA     PTSUNNY   64  34  32 W10G20    29.92F
$$
MNZ078>079-086>088-094>096-031800-
   Southeast Minnesota

CITY           SKY/WX    TMP DP  RH WIND       PRES   REMARKS
ROCHESTER      MOSUNNY   66  40  38 W23       29.91F
RED WING       MOSUNNY   70  34  26 W17G24    29.85F
STANTON        MOSUNNY   67  38  34 W15       29.87F
DODGE CENTER   MOSUNNY   64  36  34 W18G25    29.90F
WINONA         PTSUNNY   66  36  32 W12G20    29.87F
AUSTIN         MOSUNNY   63  34  34 W13G21    29.92F
PRESTON        PTSUNNY   63  35  34 W17       29.92F
$$
ABBREVIATIONS USED IN REMARKS
   TC - TEMPERATURES IN CELSIUS
  WCI - WIND CHILL INDEX
   HX - HEAT INDEX
  VSB - VISIBILITY
$$




USA.gov is the U.S. government's official web portal to all federal, state and local government web resources and services.